Home   Weather   Jackson   Past weeks

Flag for USA Past Weather in Jackson, Mississippi, USA — Yesterday and Last 2 Weeks

Now
52 °F

Clear.


Feels Like: 52 °F
Forecast: 53 / 81 °F
Wind: No wind

Location: Hawkins Field

Current Time: Feb 23, 2017 at 3:34:56 am

Latest Report: Feb 23, 2017 at 2:53 am


Visibility: 7 mi

Pressure: 29.78 "Hg

Humidity: 93%

Dew Point: 50 °F

Location of JacksonLocation

Past Weather in Jackson — Graph

°F

Jackson Temperature Yesterday

Maximum temperature yesterday: 73 °F (at 2:53 pm)
Minimum temperature yesterday: 49 °F (at 5:37 am)
Average temperature yesterday: 58 °F

High & Low Weather Summary for the Past Weeks

 TemperatureHumidityPressure
High82 °F (Feb 12, 12:53 pm)100% (Feb 22, 7:53 am)30.38 "Hg (Feb 22, 7:53 am)
Low34 °F (Feb 16, 6:53 am)20% (Feb 13, 4:53 pm)29.69 "Hg (Feb 14, 8:53 pm)
Average59 °F69%30.00 "Hg
* Reported Feb 8 1:34 am — Feb 23 1:53 am, Jackson, Weather by CustomWeather, © 2017

Note: Actual official high and low records may vary slightly from our data, if they occured in-between our weather recording intervals... More about our weather records

Advertising

Jackson Weather History for the Previous 24 Hours

Scroll right to see more
 ConditionsComfort  
Time TempWeatherWind HumidityBarometerVisibility
1:53 am
Thu, Feb 23
53 °FClear.No wind93%29.80 "Hg10 mi
12:53 am54 °FClear.No wind93%29.81 "Hg10 mi
11:53 pm
Wed, Feb 22
55 °FClear.No wind90%29.82 "Hg10 mi
10:53 pm56 °FClear.No wind87%29.83 "Hg10 mi
9:53 pm57 °FClear.5 mph87%29.84 "Hg10 mi
8:53 pm59 °FClear.No wind81%29.83 "Hg10 mi
7:53 pm63 °FClear.No wind73%29.82 "Hg10 mi
6:53 pm66 °FClear.3 mph63%29.79 "Hg10 mi
5:53 pm68 °FClear.6 mph59%29.78 "Hg10 mi
4:53 pm71 °FSunny.9 mph51%29.79 "Hg10 mi
3:53 pm73 °FSunny.7 mph48%29.79 "Hg10 mi
2:53 pm73 °FSunny.5 mph50%29.80 "Hg10 mi
1:53 pm71 °FMostly cloudy.9 mph53%29.81 "Hg10 mi
12:53 pm71 °FPassing clouds.8 mph57%29.82 "Hg10 mi
11:53 am69 °FPassing clouds.10 mph59%29.83 "Hg10 mi
10:53 am65 °FScattered clouds.7 mph73%29.86 "Hg10 mi
10:10 am61 °FScattered clouds.7 mph83%29.89 "Hg10 mi
9:53 am58 °FPartly sunny.3 mph90%29.88 "Hg10 mi
9:14 am55 °FFog.3 mph100%29.90 "Hg5 mi
8:53 am54 °FFog.7 mph97%29.88 "Hg1 mi
7:53 am51 °FFog.7 mph100%29.85 "Hg0 mi
7:00 am49 °FFog.3 mph97%29.87 "Hg0 mi
6:21 am50 °FFog.5 mph96%29.86 "Hg0 mi
5:53 am50 °FFog.3 mph96%29.83 "Hg6 mi
5:37 am49 °FFog.6 mph97%29.85 "Hg3 mi
5:15 am50 °FFog.5 mph96%29.85 "Hg2 mi
5:05 am50 °FFog.5 mph96%29.85 "Hg1 mi
5:00 am51 °FFog.5 mph96%29.85 "Hg2 mi
4:39 am50 °FFog.6 mph96%29.84 "Hg1 mi
4:19 am50 °FFog.6 mph96%29.83 "Hg2 mi
4:00 am50 °FFog.3 mph96%29.83 "Hg2 mi
Weather by CustomWeather, © 2017

See weather overviewHow to use our weather pages